Weather History for Reno, NV

Change the Weather History Date:

Friday, December 14, 2012

  Actual Average Record
Temperature  
Mean Temperature 29 °F 35 °F  
Max Temperature 38 °F 45 °F 67 °F (1969)
Min Temperature 19 °F 25 °F -6 °F (1932)
Degree Days  
Heating Degree Days 36 30  
Month to date heating degree days 324 403  
Since 1 July heating degree days 1123 1506  
Cooling Degree Days 0 0  
Month to date cooling degree days 0 0  
Year to date cooling degree days 1272 839  
Moisture  
Dew Point 20 °F    
Average Humidity 65    
Maximum Humidity 85    
Minimum Humidity 44    
Precipitation  
Precipitation 0.01 in 0.03 in 0.43 in (2003)
Month to date precipitation 0.98 0.42  
Year to date precipitation 4.64 6.79  
Snow  
Snow 0.40 in 0.10 in 2.00 in (2003)
Month to date snowfall 0.4 1.5  
Since 1 July snowfall 1.2 5.0  
Snow Depth 0.00 in    
Sea Level Pressure  
Sea Level Pressure 29.85 in    
Wind  
Wind Speed 4 mph (NW)    
Max Wind Speed 17 mph    
Max Gust Speed 24 mph    
Visibility 9 miles    
Events Snow    
T = Trace of Precipitation, MM = Missing Value Source: NWS Daily Summary

Daily Weather History Graph

Daily Weather History Graph

Search for Another Location

Airport:

Trip Planner

Search our weather history database for the weather conditions in past years. The results will help you decide how hot, cold, wet, or windy it might be!

Date:

Astronomy

Dec. 14, 2012 Rise Set
Actual Time 7:12 AM PST 4:36 PM PST
Civil Twilight 6:41 AM PST 5:06 PM PST
Nautical Twilight 6:07 AM PST 5:40 PM PST
Astronomical Twilight 5:35 AM PST 6:12 PM PST
Moon 8:21 AM PST (12/14) 6:34 PM PST (12/14)
Length of Visible Light 10h 24m
Length of Day
9h 24m
Waxing Crescent, 3% of the Moon is Illuminated
Dec 14
Waxing Crescent
Dec 19
First Quarter
Dec 28
Full
Jan 4
Last Quarter
Jan 11
New

Hourly Weather History & Observations

Time (PST) Temp. Windchill Dew Point Humidity Pressure Visibility Wind Dir Wind Speed Gust Speed Precip Events Conditions
12:55 AM 24.1 °F 19.7 °F 16.0 °F 71% 29.80 in 10.0 mi West 3.5 mph - N/A   Clear
1:55 AM 23.0 °F 17.0 °F 15.1 °F 72% 29.81 in 10.0 mi WNW 4.6 mph - N/A   Clear
2:55 AM 23.0 °F 18.4 °F 15.8 °F 74% 29.76 in 10.0 mi West 3.5 mph - N/A   Clear
3:55 AM 21.9 °F 15.7 °F 14.0 °F 72% 29.78 in 10.0 mi WNW 4.6 mph - N/A   Clear
4:55 AM 21.0 °F 16.2 °F 14.0 °F 74% 29.78 in 10.0 mi WNW 3.5 mph - N/A   Clear
5:55 AM 19.0 °F - 14.0 °F 81% 29.81 in 10.0 mi Calm Calm - N/A   Scattered Clouds
6:55 AM 19.9 °F - 12.9 °F 74% 29.81 in 10.0 mi Calm Calm - N/A   Scattered Clouds
7:55 AM 21.9 °F 17.2 °F 12.9 °F 68% 29.82 in 10.0 mi WNW 3.5 mph - N/A   Scattered Clouds
8:55 AM 24.1 °F - 15.1 °F 69% 29.83 in 10.0 mi Calm Calm - N/A   Mostly Cloudy
9:55 AM 26.1 °F - 16.0 °F 66% 29.84 in 10.0 mi Calm Calm - N/A   Mostly Cloudy
10:55 AM 30.0 °F - 17.1 °F 59% 29.83 in 10.0 mi Calm Calm - N/A   Mostly Cloudy
11:55 AM 32.0 °F - 18.0 °F 56% 29.80 in 10.0 mi Calm Calm - N/A   Overcast
12:55 PM 35.1 °F - 19.0 °F 52% 29.78 in 10.0 mi Calm Calm - N/A   Overcast
1:55 PM 37.0 °F 34.5 °F 18.0 °F 46% 29.78 in 10.0 mi Variable 3.5 mph - N/A   Overcast
2:55 PM 36.0 °F 27.5 °F 19.9 °F 52% 29.80 in 10.0 mi WNW 12.7 mph - N/A   Overcast
3:55 PM 35.1 °F 27.4 °F 21.0 °F 57% 29.83 in 10.0 mi North 10.4 mph - N/A   Overcast
4:36 PM 33.8 °F 25.3 °F 23.0 °F 65% 29.81 in 3.0 mi WNW 11.5 mph - 0.00 in Snow Light Snow
4:40 PM 33.8 °F 24.8 °F 24.8 °F 70% 29.81 in 2.5 mi WNW 12.7 mph - 0.00 in Snow Light Snow
4:55 PM 32.0 °F 24.8 °F 26.1 °F 79% 29.88 in 2.5 mi WNW 8.1 mph - 0.00 in Snow Light Snow
5:00 PM 33.8 °F 26.4 °F 26.6 °F 75% 29.83 in 4.0 mi WNW 9.2 mph - 0.00 in Snow Light Snow
5:55 PM 32.0 °F 24.2 °F 26.1 °F 79% 29.91 in 4.0 mi NW 9.2 mph - 0.00 in Snow Light Snow
6:55 PM 32.0 °F 25.6 °F 25.0 °F 75% 29.92 in 10.0 mi North 6.9 mph - 0.00 in   Overcast
7:55 PM 30.9 °F 27.5 °F 26.1 °F 82% 29.93 in 10.0 mi NE 3.5 mph - N/A   Mostly Cloudy
8:55 PM 30.9 °F 27.5 °F 25.0 °F 79% 29.94 in 10.0 mi NE 3.5 mph - N/A   Mostly Cloudy
9:55 PM 30.0 °F 26.5 °F 25.0 °F 82% 29.95 in 10.0 mi SSE 3.5 mph - N/A   Mostly Cloudy
10:16 PM 30.2 °F 26.7 °F 24.8 °F 80% 29.90 in 2.5 mi East 3.5 mph - 0.00 in Snow Light Snow
10:38 PM 30.2 °F 26.7 °F 26.6 °F 86% 29.90 in 4.0 mi ESE 3.5 mph - 0.01 in Snow Light Snow
10:55 PM 30.0 °F - 26.1 °F 85% 29.94 in 10.0 mi Calm Calm - 0.01 in   Mostly Cloudy
11:55 PM 28.9 °F - 27.0 °F 92% 29.95 in 10.0 mi Calm Calm - N/A   Mostly Cloudy